MSG 1 DEB (COOLER COVER)

基本信息
目录编号:
39998
目录名称:
MSG 1 DEB (COOLER COVER)
国际标识:
2002-040E
轨道中心:
EARTH
物体状态:
在轨
发射日期:
2002-08-28 UTC
轨道信息
数据来源: 国际轨道数据
星历时间: 2026-07-11T13:00:04+0800
半长轴: 41909.217km
偏心率: 0.0006374
轨道倾角: 12.450°
近地点辐角: 73.499°
升交点赤经: 14.775°
平近点角: 274.860°
近地点: 35504.367km
远地点: 35557.793km
周期: 1423.063分钟
每日圈数: 1.011902
详细信息
发射场:
FRGUI
轨道高度:
MEO
数据来源:
AOE Integration Group
参考系:
TEME
时间系统:
UTC
历元类型:
SGP4
2D轨道图
3D轨道图
轨道高度分析图
轨道倾角分析图
轨道综合分析图
查看轨道综合分析图